Location: Noordwijk
(52.2400°N, 4.4500°E)
Time: 01:31:35
(UTC+00:00)

VELOX 1 - Pass Details

Date: 07 December 2022
Orbit: 621 x 635 km, 98.4° (Epoch: 29 January)

Event Time Altitude Azimuth Distance (km) Brightness Sun altitude
Exits shadow 17:48:40 39° 35° (NE) 937 ? -20.0°
Maximum altitude 17:50:08 66° 103° (ESE) 685 ? -20.2°
Drops below altitude 10° 17:54:26 10° 186° (S) 1,987 ? -20.8°
Sets 17:56:37 0° 189° (S) 2,888 ? -21.2°
